Flag for Japan Weather past 2 weeks in Himeji, Japan

Now
77 °F

Sprinkles. Partly cloudy.


Feels Like: 78 °F
Forecast: 69 / 76 °F
Wind: 3 mph from South

Location: Kansai International Airport

Current Time: Sep 3, 2015 at 2:14:43 AM

Latest Report: Sep 3, 2015 at 1:30 AM


Visibility: N/A

Pressure: 29.92 "Hg

Humidity: 89%

Dew point: 73 °F

Location of HimejiLocation

Historic Weather in Himeji — Graph

°F

Himeji temperature yesterday

Maximum temperature yesterday: 82 °F (at 2:00 PM)
Minimum temperature yesterday: 73 °F (at 5:30 AM)
Average temperature yesterday: 78 °F

Past Weeks' High & Low Weather Summary

 TemperatureHumidityPressure
High88 °F (Aug 21, 1:00 PM)100% (Aug 19, 6:30 AM)29.95 "Hg (Aug 19, 6:30 AM)
Low73 °F (Sep 2, 5:30 AM)46% (Aug 28, 2:00 PM)29.36 "Hg (Aug 25, 3:30 PM)
Average80 °F81%29.76 "Hg
* Reported Midnight between Aug 18 and Aug 19 — Sep 3 12:30 AM, Himeji, Weather by CustomWeather, © 2015

Note: Actual official high and low records may vary slightly from our data, if they occured in-between our weather recording intervals... More about our weather records

Advertising

Himeji weather history for previous 24 hours

 ConditionsComfort  
Time TempWeatherWind HumidityBarometerVisibility
12:30 AM
Thu, Sep 3
77 °FScattered showers. Partly cloudy.3 mph83%29.92 "HgN/A
12:00 AM77 °FSprinkles. Partly cloudy.2 mph89%29.92 "HgN/A
11:30 PM
Wed, Sep 2
77 °FPartly cloudy.2 mph83%29.92 "HgN/A
11:00 PM77 °FSprinkles. Partly cloudy.3 mph89%29.92 "HgN/A
10:30 PM77 °FPassing clouds.3 mph83%29.92 "HgN/A
10:00 PM77 °FPassing clouds.3 mph89%29.92 "HgN/A
9:30 PM77 °FPartly cloudy.5 mph83%29.92 "HgN/A
9:00 PM77 °FPartly cloudy.6 mph83%29.92 "HgN/A
8:30 PM77 °FPartly cloudy.6 mph83%29.92 "HgN/A
8:00 PM77 °FPassing clouds.8 mph89%29.92 "HgN/A
7:30 PM77 °FPartly cloudy.7 mph89%29.89 "HgN/A
7:00 PM77 °FPartly cloudy.7 mph89%29.89 "HgN/A
6:30 PM79 °FPartly cloudy.5 mph79%29.89 "HgN/A
6:00 PM79 °FBroken clouds.7 mph79%29.86 "HgN/A
5:30 PM79 °FBroken clouds.6 mph79%29.89 "HgN/A
5:00 PM79 °FSprinkles. Broken clouds.3 mph84%29.89 "HgN/A
4:30 PM79 °FSprinkles. Broken clouds.2 mph79%29.89 "HgN/A
4:00 PM81 °FBroken clouds.9 mph74%29.89 "HgN/A
3:30 PM81 °FBroken clouds.6 mph70%29.89 "HgN/A
3:00 PM81 °FBroken clouds.8 mph74%29.89 "HgN/A
2:30 PM81 °FBroken clouds.8 mph70%29.89 "HgN/A
2:00 PM82 °FPartly sunny.8 mph66%29.89 "HgN/A
1:30 PM81 °FPartly sunny.6 mph70%29.89 "HgN/A
12:30 PM79 °FPartly sunny.7 mph79%29.92 "HgN/A
12:00 PM81 °FScattered clouds.7 mph74%29.92 "HgN/A
11:30 AM79 °FScattered clouds.6 mph79%29.92 "HgN/A
11:00 AM77 °FPassing clouds.6 mph79%29.92 "HgN/A
10:30 AM77 °FPassing clouds.6 mph74%29.92 "HgN/A
10:00 AM79 °FPassing clouds.3 mph74%29.92 "HgN/A
9:30 AM79 °FPassing clouds.5 mph79%29.92 "HgN/A
9:00 AM77 °FScattered clouds.7 mph79%29.92 "HgN/A
8:30 AM77 °FScattered clouds.3 mph83%29.92 "HgN/A
8:00 AM77 °FPartly sunny.5 mph83%29.92 "HgN/A
7:30 AM75 °FPartly sunny.5 mph89%29.92 "HgN/A
6:30 AM75 °FBroken clouds.8 mph89%29.89 "HgN/A
6:00 AM75 °FBroken clouds.8 mph89%29.89 "HgN/A
5:30 AM73 °FScattered showers. Partly cloudy.10 mph94%29.89 "HgN/A
5:00 AM75 °FSprinkles. Passing clouds.9 mph89%29.86 "HgN/A
4:30 AM75 °FSprinkles. Partly cloudy.6 mph94%29.86 "HgN/A
4:00 AM75 °FSprinkles. Partly cloudy.8 mph94%29.86 "HgN/A
3:30 AM75 °FSprinkles. Partly cloudy.7 mph100%29.83 "HgN/A
3:00 AM77 °FRain showers. Partly cloudy.7 mph94%29.83 "Hg5 mi
2:30 AM77 °FSprinkles. Partly cloudy.7 mph94%29.83 "HgN/A
2:00 AM77 °FSprinkles. Partly cloudy.7 mph94%29.83 "HgN/A
Weather by CustomWeather, © 2015

See weather overviewHow to use our weather pages